Showing default

HYSIS, 43719

Orbit data source: Space-Track

HYSIS, 43719 is a payload satellite owned by ISRO (IN) in SSO that was launched on Thu, 29 Nov 2018 UTC via a PSLV launch vehicle from the Sirharikota (SRI). Payload-class satellites include a variety of spacecraft equipped with specific instruments for various scientific and technological missions. These include communications satellites like Starlink; space stations such as the ISS; scientific satellites like the Hubble; Earth observation satellites from companies like Planet Labs, Umbra, and HawkEye 360; GPS; miniature CubeSats for education and research; and military/defense satellites.

Loading next visibility...
Identifier
43719, 2018-096A
Orbit
SSO
Last TLE update
8 hours ago
Origin
Manufacturer
ISRO
Mission
Operational Civil Imaging
Bus & Motor
SSB-2, AOCS
Mass
380 kg wet, ~350 kg dry
Launch date (UTC)
2018-11-29 (6 years ago)
Launch vehicle
PSLV
Launch site
Sirharikota (SRI)
Object type
Payload
Rocket body
Debris
Shape & HBR
Box + 2 Pan, 6 m
Radar Cross Section
4.485 m², Large (>1 m²)

Expand to show TLE details & history

TLE from 8 hours ago
0 HYSIS
1 43719U 18096A   25128.94540529  .00001685  45000-9  23038-3 0  9991
2 43719  98.0324 192.6149 0001168  79.6228 280.5115 14.78646054347689
Epoch: 2025-05-08T22:41Z
Definitive object data (Epoch: 2025-05-08T22:41:23.017Z)
Latitude
0.00006°
Longitude
-14.73963°
Altitude
636.467 km
Speed
7.54 km/s
True Right ascension
12h 50m 27s
True Declination
0° 00' 00"
Sunlit
Object was in full shadow at TLE epoch
Visualization TLE readout
Latitude
-69.50327°
Longitude
143.52457°
Altitude
660.429 km
Speed
7.526 km/s
Apparent Right ascension
01h 27m 35s
Apparent Declination
-57° 14' 14"
Sunlit
Object is in daylight
Visualization observer readout
Local Sidereal Time
14:27:51
Azimuth
155.568° SSE
Elevation
-70.116°
Doppler factor
1
Orbital elements
Apogee altitude
631.468 km
Perigee altitude
629.831 km
Semi-major axis
7,008.787 km
Eccentricity
0.0001168
Inclination
98.0324°
RAAN
192.6149°
Arg. of periapsis
79.6228°
True anomaly
280.49834°
Mean anomaly
280.5115°
Eccentric anomaly
280.50492°
Mean motion
3.69895 °/min
BSTAR
0.00023038
Orbital period
97.32 mins
Loading maneuver chart data...
Loading SW <> Apogee altitude chart data...

HYSIS Visibility forecast

Observer location: undefined°, undefined°

Span
Click to sort rows by Start time (UTC) header in descending order
Start Az.
Max El. time (UTC)
Max El. Az.
Max El.
End time (UTC)
End Az.
8 mins2025-05-09 17:07:02.775Z12.114° NNE2025-05-09 17:11:02.775Z256.736° W44.975°2025-05-09 17:15:02.775Z194.849° SSW
6 mins2025-05-10 04:04:02.775Z153.46° SSE2025-05-10 04:06:02.775Z113.011° SE42.459°2025-05-10 04:10:02.775Z353.104° N
|